Regional Weather Roundup
Issued by NWS

Home | Current Version | Previous Version | Text Only | Print | Product List | Glossary On
Versions: 1 2 3 4 5 6 7 8 9 10 11 12 13 14 15 16 17 18 19 20 21 22 23 24 25 26 27 28 29 30 31 32 33 34 35 36 37 38 39 40 41 42 43 44 45 46 47 48 49 50
000
ASUS44 KLUB 210001
RWRTX
WEST TEXAS WEATHER ROUNDUP
NATIONAL WEATHER SERVICE LUBBOCK TX
700 PM CDT WED AUG 20 2014

NOTE: "FAIR" INDICATES FEW OR NO CLOUDS BELOW 12,000 FEET WITH NO
SIGNIFICANT WEATHER AND/OR OBSTRUCTIONS TO VISIBILITY.

TXZ004-006>008-010-012-014-016-OKZ002-210100-
TEXAS PANHANDLE/OKLAHOMA PANHANDLE

CITY           SKY/WX    TMP DP  RH WIND       PRES   REMARKS
AMARILLO       PTSUNNY   91  57  31 S21G29    29.90R
BORGER         PTSUNNY   93  57  29 SW13G21   29.85R
CANADIAN       SUNNY     94  62  33 S21G26    29.81R HX  95
DALHART        LGT RAIN  87  59  38 SE15      29.89R
DUMAS          PTSUNNY   79  62  56 SE6       29.88F
GUYMON         SUNNY     97  53  22 S21G26    29.78S
HEREFORD       PTSUNNY   75  64  68 S10       29.92F
PAMPA          MOSUNNY   89  55  31 S20G26    29.88R
PERRYTON       SUNNY     93  57  30 S26       29.83R
$$

TXZ026-029-035-045-048-210100-
SOUTHERN PANHANDLE/SOUTH PLAINS/ROLLING PLAINS

CITY           SKY/WX    TMP DP  RH WIND       PRES   REMARKS
CHILDRESS      MOSUNNY   97  61  30 S20G25    29.82F HX  97
SEMINOLE       PTSUNNY   92  58  31 S18       29.91R
LUBBOCK        PTSUNNY   89  60  37 S15       29.90S
PLAINVIEW      SUNNY     90  60  36 S13       29.89S
SNYDER         MOSUNNY   92  64  38 SE21      29.88S
$$

TXZ052-054-060>062-072-078-127-140-154-169-210100-
PERMIAN BASIN/CONCHO VALLEY/BIG COUNTRY/EDWARDS PLATEAU

CITY           SKY/WX    TMP DP  RH WIND       PRES   REMARKS
ABILENE        SUNNY     94  60  32 S14       29.89R
BIG SPRING     MOSUNNY   94  62  33 SE20G26   29.90R HX  95
BRADY          SUNNY     91  61  35 S9        29.92S
BROWNWOOD      SUNNY     95  55  26 S12G20    29.89S
JUNCTION       SUNNY     91  62  37 S12       29.92R
MIDLAND        TSTM      75  66  73 SW10G41   29.92R VSB 3/4
ODESSA         TSTM      75  67  76 SE9       29.93S
SAN ANGELO     SUNNY     93  60  33 S16G23    29.89R
SONORA         SUNNY     90  59  35 S12G18    29.98R
SWEETWATER     SUNNY     91  64  39 SE20G25   29.93R
WINK           PTSUNNY   91  61  36 S29G38    29.87R
$$

TXZ055-058-074-075-080-082-210100-
FAR WEST/SOUTHWEST MOUNTAINS/TRANS PECOS

CITY           SKY/WX    TMP DP  RH WIND       PRES   REMARKS
ALPINE         CLOUDY    71  65  80 SE16G30   30.08R THUNDER
DRYDEN           N/A     90  64  42 SW3       29.91R
EL PASO        MOSUNNY   91  50  24 W10G24    29.93S
FORT STOCKTON  CLOUDY    76  62  62 S18G24    29.92F
GUADALUPE PASS SUNNY     84  49  29 SW21G31   30.06R
MARFA          PTSUNNY   84  61  45 S7        30.07S
PRESIDIO       FAIR      92  61  35 SE13      29.88S
$$

TXZ014-016-019-021>030-083-210100
TEXAS TECH WEST TEXAS MESONET/TEXAS PANHANDLE/NORTHERN SOUTH PLAINS

CITY           SKY/WX    TMP DP  RH WIND       PRES   REMARKS
ABERNATHY 5ENE   N/A     92  58  31 S17       29.91S
AMARILLO 9NNE    N/A     94  59  30 S15       29.86S
AMARILLO 7SSE    N/A     91  58  33 S16       29.91R
AMHERST 1NE      N/A     88  60  37 SE13      29.90S
BOOTLEG 11WNW    N/A     88  57  35 S15       29.96S
CANADIAN 6E      N/A     95  62  33 S17       29.81R HX  95
CAPROCK CYN SP   N/A     95  55  26 S17       29.85S
CHILDRESS 2NNE   N/A     97  58  27 S16       29.81F HX  96
CLARENDON 2WSW   N/A     93  56  28 S15       29.85S
CLAUDE 12SW      N/A     91  59  34 S14       29.90R
DIMMITT 2NE      N/A     83  59  44 W10       29.93R
FLOYDADA 2NNE    N/A     91  56  30 S16       29.89F
FRIONA 2NE       N/A     78  64  63 E8        29.94F
GOODLETT 3W      N/A     98  58  26 SE17      29.79F HX  97
HART 3N          N/A     85  63  47 SE13      29.92R
HEREFORD 2NW     N/A     73  60  63 SE10      29.92F
MCLEAN 1E        N/A     92  58  32 S16       29.85S
MEMPHIS 1NE      N/A     97  59  27 SE10      29.81S HX  96
MULESHOE 2SSW    N/A     80  67  64 E8        29.91F
OLTON 6S         N/A     88  60  38 SE15      29.91S
PALO DURO SP     N/A     91  58  32 S12       29.91R
PAMPA 2E         N/A     92  58  31 SE21      29.87S
PLAINVIEW 1S     N/A     90  60  35 S16       29.89S
SILVERTON 7ESE   N/A     93  58  31 S18       29.89R
TULIA 2ENE       N/A     91  59  34 S17       29.90R
TURKEY 2WSW      N/A     96  58  28 S10       29.83S
UMBARGER 3NNE    N/A     83  59  44 SW16      29.93R
$$

TXZ033>036-039>041-045>048-210100
TEXAS TECH WEST TEXAS MESONET/SOUTH PLAINS

CITY           SKY/WX    TMP DP  RH WIND       PRES   REMARKS
AIKEN 3WSW       N/A     90  62  38 S13       29.91S
ANTON 6SSW       N/A     89  62  41 SE21      29.89F
BROWNFIELD 2S    N/A     89  60  37 SE20      29.90S
DENVR CTY 7WNW   N/A     93  47  21 S14       29.90R
GAIL 2ESE        N/A     91  62  37 SE15      29.86S
LAMESA 2SE       N/A     77  67  70 NE6       29.90S
LEVELLAND 4S     N/A     89  58  34 SE17      29.89F
LUBBOCK 3WNW     N/A     89  61  39 S13       29.90S
MORTON 1ENE      N/A     93  51  23 S14       29.89F
ODONNELL 1N      N/A     74  62  67 S20       29.91R
PLAINS 3N        N/A     94  50  22 S14       29.90S
RALLS 1SE        N/A     89  62  40 S12       29.90S
REESE CENTER     N/A     89  58  35 SE16      29.89F
SEAGRAVES 1SW    N/A     91  58  32 S16       29.89S
SEMINOLE 2NNE    N/A     91  56  30 S20       29.89S
SLATON 2NE       N/A     76  68  75 SE7       29.91S
SNYDER 3E        N/A     93  60  32 SE18G28   29.87S
SUNDOWN 8SW      N/A     92  59  33 SE16      29.89F
TAHOKA 3NNE      N/A     77  66  68 SE8       29.90S
WOLFFORTH 6SSW   N/A     87  63  44 SE16      29.90F
$$

TXZ031-032-036>038-042>044-210100-
TEXAS TECH WEST TEXAS MESONET/ROLLING PLAINS

CITY           SKY/WX    TMP DP  RH WIND       PRES   REMARKS
ASPERMONT 3NE    N/A     95  64  34 SE14      29.84S HX  97
FLUVANNA 3WNW    N/A     92  57  30 S20       29.88S
GRAHAM 5SSW      N/A     88  63  43 S15       29.88S
GUTHRIE 10WSW    N/A     97  61  30 S17       29.82S HX  97
HASKELL 1NW      N/A     94  58  30 S14G24    29.84S
JAYTON 1SSE      N/A     95  61  31 SE17      29.84S HX  95
KNOX CITY 3NW    N/A     97  58  27 S20       29.82S HX  96
LK A HENRY 1NW   N/A     95  63  34 S15       29.85S HX  96
NORTHFIELD 1S    N/A     97  59  27 S16       29.81S HX  96
ODELL 4ENE       N/A     99  59  26 SE16      29.81S HX  99
PADUCAH 10SW     N/A     95  60  31 S14       29.82F
POST 1NE         N/A     91  58  33 S15       29.87S
RRING SPRGS 3N   N/A     94  59  31 S14       29.86S
SEYMOUR 3NW      N/A     98  56  24 S17       29.82S HX  96
SPUR 1W          N/A     93  57  29 S14       29.84S
WEINERT 2NNE     N/A     96  63  34 S17       29.84R HX  97
WHITE RVR 6NE    N/A     92  60  34 SE15      29.86F
$$

TXZ052-054-060>062-072-078-127-140-154-169-210100-
TEXAS TECH WEST TEXAS MESONET/PERMIAN BASIN/
CONCHO VALLEY/BIG COUNTRY/EDWARDS PLATEAU

CITY           SKY/WX    TMP DP  RH WIND       PRES   REMARKS
COYANOSA 2N      N/A     83  62  50 SE21      29.89R
JUNCTION 1SSW    N/A     91  64  40 S7        29.92S
MERTZON 3NNE     N/A     91  66  43 SE16      29.92R
SAN ANGELO 7NW   N/A     91  62  37 SE15      29.89S
STRLNG CT 4WSW   N/A     92  64  39 SE15      29.91R
ST LAWRNCE 5SW   N/A     87  61  41 E16       29.91R
SWEETWATR 11SW   N/A     91  66  44 SE22      29.92R
WALL 1E          N/A     88  64  44 SE12      29.90S
$$

TXZ055-058-074-075-080-082-210100-
TEXAS TECH WEST TEXAS MESONET/FAR WEST/SOUTHWEST MOUNTAINS/TRANS PECOS

CITY           SKY/WX    TMP DP  RH WIND       PRES   REMARKS
PRSMN GAP BBNP   N/A     80  65  61 N10       29.96R
GUADLPE MTN NP   N/A     82  47  29 SW13      30.07R
$$



USA.gov is the U.S. government's official web portal to all federal, state and local government web resources and services.